Hourly Data Report for October 04, 2017

All times are specified in Local Standard Time (LST). Add 1 hour to adjust for Daylight Saving Time where and when it is observed.

CARBERRY CS
MANITOBA

49°54'20.900" N
99°21'26.800" W
383.50 m
5010547
71170
WZE

Download Data

Hourly Data (October 2017)
Hourly Data Report for October 4, 2017
Temp Definition
°C
Dew Point Temp Definition
°C
Rel Hum Definition
%
Wind Dir Definition
10's deg

Wind Spd Definition
km/h
Visibility Definition
km
Stn Press Definition
kPa
Hmdx Definition


Wind Chill Definition


Weather Definition


TIME
00:00 6.2 2.8 79 25 13   97.52     LegendNANA
01:00 6.3 4.0 85 26 11   97.58     LegendNANA
02:00 7.1 4.9 86 27 15   97.61     LegendNANA
03:00 6.3 4.2 86 27 24   97.65     LegendNANA
04:00 5.4 3.3 87 26 21   97.65     LegendNANA
05:00 4.2 2.4 88 25 16   97.68     LegendNANA
06:00 4.5 2.0 83 25 28   97.70     LegendNANA
07:00 4.7 2.0 82 26 21   97.68     LegendNANA
08:00 5.4 2.1 80 23 20   97.67     LegendNANA
09:00 7.0 2.6 74 25 26   97.66     LegendNANA
10:00 8.4 1.9 63 26 36   97.64     LegendNANA
11:00 9.9 1.5 56 26 34   97.62     LegendNANA
12:00 10.9 1.9 54 27 34   97.56     LegendNANA
13:00 11.8 2.0 51 24 30   97.46     LegendNANA
14:00 12.4 2.3 50 24 26   97.40     LegendNANA
15:00 13.2 1.7 46 24 22   97.35     LegendNANA
16:00 13.0 2.1 47 24 23   97.31     LegendNANA
17:00 11.8 2.7 54 23 21   97.31     LegendNANA
18:00 9.7 2.7 62 24 15   97.28     LegendNANA
19:00 7.6 2.3 69 21 5   97.33     LegendNANA
20:00 6.4 2.0 73 21 7   97.35     LegendNANA
21:00 5.1 1.7 79 22 7   97.37     LegendNANA
22:00 3.4 0.8 83 25 9   97.38     LegendNANA
23:00 3.4 1.4 87 24 9   97.40     LegendNANA

Notes on Data Quality.

Legend

  • E = Estimated
  • M = Missing
  • NA = Not Available
  • ‡ = Partner data that is not subject to review by the National Climate Archives
Date modified: